{"data":{"norad_id":49158,"epoch":"2026-05-25T04:38:10.295808Z","epoch_age_seconds":62279,"freshness":"FRESH","line1":"1 49158U 21082AE  26145.19317472  .00072690  00000+0  51282-3 0  9996","line2":"2 49158  69.9641 318.3957 0002995 197.4938 162.6157 15.73705302262052","mean_motion":15.73705302,"eccentricity":0.0002995,"inclination_deg":69.9641,"raan_deg":318.3957,"arg_perigee_deg":197.4938,"mean_anomaly_deg":162.6157,"bstar":0.00051282,"rev_number":26205,"period_min":91.503790332912,"perigee_km":346.30334733903,"apogee_km":350.33249383646,"semimajor_km":6726.4549205877,"source":"CELESTRAK","updated_at":"2026-05-25T13:38:16.789844Z"}}